TimeCST,TemperatureF,Dew PointF,Humidity,Sea Level PressureIn,VisibilityMPH,Wind Direction,Wind SpeedMPH,Gust SpeedMPH,PrecipitationIn,Events,Conditions,WindDirDegrees,DateUTC
12:53 AM,41.0,36.0,82,29.91,10.0,NNW,3.5,-,N/A,,Overcast,330,2013-11-14 06:53:00
1:53 AM,44.1,36.0,73,29.90,10.0,North,3.5,-,N/A,,Overcast,360,2013-11-14 07:53:00
2:53 AM,42.1,36.0,79,29.90,10.0,WNW,5.8,-,N/A,,Partly Cloudy,300,2013-11-14 08:53:00
3:53 AM,45.0,37.9,76,29.90,10.0,Calm,Calm,-,N/A,,Overcast,0,2013-11-14 09:53:00
4:53 AM,44.1,39.0,82,29.92,10.0,NW,5.8,-,0.00,,Overcast,320,2013-11-14 10:53:00
5:53 AM,46.9,39.0,74,29.91,10.0,West,13.8,-,0.00,,Overcast,280,2013-11-14 11:53:00
6:53 AM,46.9,39.0,74,29.93,10.0,WNW,6.9,-,N/A,,Overcast,290,2013-11-14 12:53:00
7:53 AM,46.9,39.0,74,29.93,10.0,West,10.4,-,N/A,,Overcast,260,2013-11-14 13:53:00
8:53 AM,48.0,39.0,71,29.95,10.0,West,10.4,-,N/A,,Scattered Clouds,280,2013-11-14 14:53:00
9:53 AM,50.0,37.9,63,29.94,10.0,WNW,11.5,-,N/A,,Clear,290,2013-11-14 15:53:00
10:53 AM,53.1,36.0,52,29.95,10.0,NW,16.1,-,N/A,,Clear,310,2013-11-14 16:53:00
11:53 AM,55.0,36.0,49,29.93,10.0,NW,17.3,-,N/A,,Clear,320,2013-11-14 17:53:00
12:53 PM,55.9,36.0,47,29.90,10.0,NW,11.5,-,N/A,,Clear,310,2013-11-14 18:53:00
1:53 PM,55.9,36.0,47,29.88,10.0,NNW,12.7,20.7,N/A,,Clear,330,2013-11-14 19:53:00
2:53 PM,55.9,36.0,47,29.87,10.0,NNW,8.1,-,N/A,,Clear,340,2013-11-14 20:53:00
3:53 PM,55.0,36.0,49,29.86,10.0,NW,6.9,-,N/A,,Clear,310,2013-11-14 21:53:00
4:53 PM,48.0,35.1,61,29.88,10.0,NW,5.8,-,N/A,,Clear,310,2013-11-14 22:53:00
5:53 PM,46.9,34.0,61,29.87,10.0,West,5.8,-,N/A,,Unknown,260,2013-11-14 23:53:00
6:53 PM,44.1,33.1,65,29.87,10.0,SW,4.6,-,N/A,,Clear,230,2013-11-15 00:53:00
7:53 PM,41.0,32.0,70,29.88,10.0,SSW,5.8,-,N/A,,Clear,210,2013-11-15 01:53:00
8:53 PM,39.9,32.0,73,29.87,10.0,WSW,10.4,28.8,N/A,,Clear,240,2013-11-15 02:53:00
9:53 PM,34.0,28.9,82,29.87,10.0,Calm,Calm,-,N/A,,Clear,0,2013-11-15 03:53:00
10:53 PM,39.0,32.0,76,29.86,10.0,WSW,6.9,-,N/A,,Clear,240,2013-11-15 04:53:00
11:53 PM,39.9,30.9,70,29.85,10.0,WSW,9.2,-,N/A,,Clear,240,2013-11-15 05:53:00